Location: Newark
(13.8117°N, 3.6025°W)
Time: 09:00:26
(UTC+00:00)

Hubble Space Telescope - Visible Passes

Search period start: 25 August 2019 00:00
Search period end: 04 September 2019 00:00
Orbit: 536 x 540 km, 28.5° (Epoch: 24 August)

Date Brightness Start Highest point End Pass type
(mag) Time Alt. Az. Time Alt. Az. Time Alt. Az.
25 Aug 1.7 19:14:58 10° NW 19:18:47 36° NNE 19:21:21 18° E visible
25 Aug 3.8 20:56:04 10° W 20:56:41 14° W 20:56:41 14° W visible
26 Aug 1.3 19:04:18 10° NW 19:08:17 48° NNE 19:11:30 15° E visible
26 Aug 3.5 20:45:46 10° W 20:46:51 16° W 20:46:51 16° W visible
27 Aug 0.9 18:53:41 10° WNW 18:57:46 65° NNE 19:01:43 11° ESE visible
27 Aug 3.3 20:35:37 10° W 20:37:04 17° WSW 20:37:04 17° WSW visible
28 Aug 3.3 20:25:43 10° WSW 20:27:21 15° SW 20:27:21 15° SW visible
29 Aug 3.4 20:16:20 10° SW 20:17:41 11° SSW 20:17:41 11° SSW visible
